Weather History for KOFK - December, 2011

Change the Weather History Date:

Saturday, December 31, 2011

  Actual Average Record
Temperature  
Mean Temperature 39 °F 22 °F  
Max Temperature 47 °F 32 °F 72 °F (1904)
Min Temperature 30 °F 12 °F -22 °F (1967)
Degree Days  
Heating Degree Days 26 43  
Month to date heating degree days 1149 1262  
Since 1 July heating degree days 2484 2706  
Cooling Degree Days 0 0  
Month to date cooling degree days 0 0  
Year to date cooling degree days 1059 915  
Moisture  
Dew Point 29 °F    
Average Humidity 68    
Maximum Humidity 85    
Minimum Humidity 51    
Precipitation  
Precipitation 0.00 in 0.02 in 0.90 in (1931)
Month to date precipitation 0.79 0.75  
Year to date precipitation 21.04 27.41  
Snow  
Snow 0.00 in 0.20 in - ()
Month to date snowfall 8.1 6.0  
Since 1 July snowfall 8.1 10.9  
Snow Depth 0.00 in    
Sea Level Pressure  
Sea Level Pressure 29.70 in    
Wind  
Wind Speed 16 mph (NW)    
Max Wind Speed 37 mph    
Max Gust Speed 47 mph    
Visibility 10 miles    
Events      
T = Trace of Precipitation, MM = Missing Value Source: NWS Daily Summary

Daily Weather History Graph

Daily Weather History Graph

Search for Another Location

Airport or City:

Trip Planner

Search our weather history database for the weather conditions in past years. The results will help you decide how hot, cold, wet, or windy it might be!

Date:

Astronomy

Dec. 31, 2011 Rise Set
Actual Time 7:57 AM CST 5:07 PM CST
Civil Twilight 7:26 AM CST 5:39 PM CST
Nautical Twilight 6:50 AM CST 6:14 PM CST
Astronomical Twilight 6:16 AM CST 6:48 PM CST
Moon 11:35 AM CST (12/31) No Moon Set
Length of Visible Light 10h 13m
Length of Day
9h 10m
Waxing Crescent, 45% of the Moon is Illuminated
Dec 31
Waxing Crescent
Jan 1
First Quarter
Jan 9
Full
Jan 16
Last Quarter
Jan 23
New

Hourly Weather History & Observations

Time (CST) Temp. Windchill Dew Point Humidity Pressure Visibility Wind Dir Wind Speed Gust Speed Precip Events Conditions
12:56 AM 30.9 °F 23.5 °F 27.0 °F 85% 29.73 in 10.0 mi ESE 8.1 mph - N/A   Clear
1:56 AM 35.1 °F 26.4 °F 27.0 °F 72% 29.68 in 10.0 mi SSE 12.7 mph - N/A   Clear
2:56 AM 35.1 °F 27.9 °F 26.1 °F 70% 29.67 in 10.0 mi SE 9.2 mph - N/A   Clear
3:56 AM 35.1 °F 28.6 °F 27.0 °F 72% 29.65 in 10.0 mi SE 8.1 mph - N/A   Clear
4:56 AM 34.0 °F 25.5 °F 27.0 °F 75% 29.59 in 10.0 mi SSE 11.5 mph - N/A   Clear
5:56 AM 35.1 °F 31.0 °F 28.0 °F 76% 29.57 in 10.0 mi SSE 4.6 mph - N/A   Clear
6:56 AM 36.0 °F 30.3 °F 28.0 °F 73% 29.55 in 10.0 mi Variable 6.9 mph - N/A   Clear
7:56 AM 36.0 °F 27.5 °F 28.0 °F 73% 29.54 in 10.0 mi South 12.7 mph - N/A   Clear
8:56 AM 37.0 °F 31.6 °F 28.0 °F 70% 29.53 in 10.0 mi SE 6.9 mph - N/A   Clear
9:56 AM 37.9 °F 34.4 °F 28.9 °F 70% 29.55 in 10.0 mi Variable 4.6 mph 23.0 mph N/A   Clear
10:56 AM 37.0 °F - 28.9 °F 73% 29.54 in 10.0 mi Calm Calm - N/A   Clear
11:56 AM 39.0 °F 34.8 °F 30.0 °F 70% 29.52 in 10.0 mi SW 5.8 mph - N/A   Partly Cloudy
12:56 PM 43.0 °F 37.7 °F 30.9 °F 62% 29.52 in 10.0 mi WNW 9.2 mph - N/A   Clear
1:56 PM 44.1 °F 35.9 °F 28.0 °F 53% 29.54 in 10.0 mi NW 19.6 mph - N/A   Mostly Cloudy
3:15 PM 39.2 °F 28.0 °F 30.2 °F 70% 29.58 in 10.0 mi NW 26.5 mph 32.2 mph N/A   Mostly Cloudy
3:41 PM 37.4 °F 26.4 °F 30.2 °F 75% 29.61 in 10.0 mi NNW 23.0 mph 31.1 mph N/A   Overcast
3:56 PM 36.0 °F 23.7 °F 30.0 °F 79% 29.66 in 10.0 mi NNW 26.5 mph 35.7 mph N/A   Overcast
4:56 PM 36.0 °F 26.3 °F 30.0 °F 79% 29.73 in 10.0 mi NW 16.1 mph 27.6 mph N/A   Overcast
5:32 PM 37.4 °F 26.9 °F 30.2 °F 75% 29.72 in 10.0 mi NNW 20.7 mph 31.1 mph N/A   Overcast
5:56 PM 37.9 °F 27.1 °F 30.9 °F 76% 29.76 in 10.0 mi NNW 23.0 mph 34.5 mph N/A   Overcast
6:36 PM 39.2 °F 28.5 °F 32.0 °F 75% 29.77 in 10.0 mi NNW 24.2 mph 36.8 mph N/A   Overcast
6:56 PM 39.9 °F 28.8 °F 32.0 °F 73% 29.82 in 10.0 mi NNW 27.6 mph 40.3 mph N/A   Overcast
7:06 PM 39.2 °F 28.0 °F 32.0 °F 75% 29.80 in 10.0 mi NNW 26.5 mph 39.1 mph N/A   Overcast
7:54 PM 39.2 °F 28.0 °F 30.2 °F 70% 29.85 in 10.0 mi NNW 26.5 mph 43.7 mph N/A   Overcast
7:56 PM 39.9 °F 29.2 °F 30.9 °F 70% 29.89 in 10.0 mi NNW 25.3 mph 43.7 mph N/A   Overcast
8:56 PM 41.0 °F 30.0 °F 27.0 °F 57% 29.93 in 10.0 mi NNW 28.8 mph 41.4 mph N/A   Partly Cloudy
9:56 PM 41.0 °F 30.2 °F 25.0 °F 53% 29.97 in 10.0 mi NNW 27.6 mph 38.0 mph N/A   Partly Cloudy
10:56 PM 39.0 °F 27.4 °F 24.1 °F 55% 30.02 in 10.0 mi NW 28.8 mph 40.3 mph N/A   Clear
11:56 PM 37.9 °F 25.1 °F 23.0 °F 55% 30.06 in 10.0 mi NW 33.4 mph 47.2 mph N/A   Clear